contact:dominique.lefevre@mio.osupytheas.fr, maurice.libes@osupytheas.fr, didier.mallarino@osupytheas.fr
Project:EMSO http://www.emso-fr.org/EMSO-France
Depth: 2436.0 m
Title:EMSO Ligure Ouest : Data MII capteur AQUADOPP
Date,Latitude,Longitude,X_East,Y_North,Z_Up,Amplitude_X,Amplitude_Y,Amplitude_Z,Batterie,SoundSpeed,Heading,Pitch,Roll,Pressure,TIS,Speed,Direction
, degrees North, degrees East, m.s-1, m.s-1,m.s-1, 1, 1, 1, Volt, m.s-1, degree, degree, degree, dbar, degree_C, m.s-1, degree
2019-11-03T00:04:04,42.805,6.029,0.003,0.02,-0.033,99.0,108.0,98.0,13.4,1505.1,322.8,-0.8,1.9,2470.485,13.27,0.02,8.5
2019-11-03T00:07:05,42.805,6.029,0.017,0.021,-0.019,99.0,108.0,98.0,13.4,1505.2,326.5,-0.7,1.9,2470.391,13.29,0.027,39.0
2019-11-03T00:10:06,42.805,6.029,-0.006,0.03,-0.036,99.0,107.0,98.0,13.3,1505.3,328.2,-0.7,1.8,2470.266,13.31,0.03,348.7
2019-11-03T00:13:07,42.805,6.029,0.0,0.016,-0.015,101.0,108.0,97.0,13.3,1505.3,324.1,-0.7,1.8,2470.134,13.31,0.016,0.0
2019-11-03T00:16:08,42.805,6.029,0.023,0.047,-0.021,100.0,109.0,98.0,13.4,1505.3,325.0,-0.7,1.8,2470.062,13.32,0.052,26.1
2019-11-03T00:19:09,42.805,6.029,-0.003,0.022,-0.017,100.0,108.0,97.0,13.4,1505.3,326.5,-0.7,1.8,2470.025,13.32,0.022,352.2
2019-11-03T00:22:10,42.805,6.029,0.012,0.013,-0.018,100.0,107.0,97.0,13.4,1505.3,328.1,-0.7,1.9,2469.951,13.33,0.017,42.7
2019-11-03T00:25:11,42.805,6.029,0.012,0.024,0.0,100.0,108.0,97.0,13.4,1505.3,323.0,-0.8,1.8,2469.934,13.33,0.026,26.6
2019-11-03T00:28:12,42.805,6.029,0.01,0.043,-0.029,99.0,108.0,98.0,13.4,1505.3,326.0,-0.7,1.8,2469.873,13.33,0.044,13.1
2019-11-03T00:31:13,42.805,6.029,-0.007,0.037,-0.044,100.0,108.0,99.0,13.3,1505.3,322.9,-0.7,1.9,2469.878,13.33,0.037,349.3
2019-11-03T00:34:14,42.805,6.029,0.0,0.02,-0.021,101.0,108.0,98.0,13.4,1505.3,325.0,-0.7,1.8,2469.889,13.33,0.02,0.0
2019-11-03T00:37:15,42.805,6.029,-0.005,0.032,-0.041,100.0,109.0,98.0,13.4,1505.4,326.9,-0.7,1.8,2469.851,13.34,0.032,351.1
2019-11-03T00:40:16,42.805,6.029,-0.007,0.029,-0.041,100.0,109.0,99.0,13.4,1505.4,323.7,-0.7,1.9,2469.864,13.34,0.029,346.4
2019-11-03T00:43:17,42.805,6.029,0.018,0.02,-0.021,99.0,108.0,98.0,13.3,1505.4,325.0,-0.7,1.8,2469.862,13.34,0.026,42.0
2019-11-03T00:46:18,42.805,6.029,0.005,0.032,-0.003,100.0,107.0,98.0,13.4,1505.4,326.3,-0.7,1.8,2469.83,13.34,0.032,8.9
2019-11-03T00:49:19,42.805,6.029,0.006,0.008,-0.026,100.0,108.0,97.0,13.4,1505.4,326.4,-0.7,1.8,2469.829,13.34,0.01,36.9
2019-11-03T00:52:20,42.805,6.029,0.019,0.017,-0.034,99.0,107.0,97.0,13.3,1505.4,326.6,-0.7,1.8,2469.848,13.34,0.025,48.2
2019-11-03T00:55:21,42.805,6.029,-0.007,0.023,-0.055,99.0,107.0,98.0,13.4,1505.4,323.1,-0.7,1.8,2469.85,13.34,0.024,343.1
2019-11-03T00:58:22,42.805,6.029,-0.011,0.011,-0.025,100.0,108.0,98.0,13.4,1505.4,323.5,-0.8,1.9,2469.85,13.34,0.015,315.0
2019-11-03T01:01:23,42.805,6.029,0.012,0.03,0.001,100.0,108.0,97.0,13.3,1505.4,324.7,-0.7,1.9,2469.875,13.34,0.032,21.8
2019-11-03T01:04:24,42.805,6.029,-0.023,0.039,-0.028,100.0,109.0,98.0,13.4,1505.4,322.6,-0.7,1.8,2469.875,13.34,0.045,329.5
2019-11-03T01:07:25,42.805,6.029,-0.019,0.034,-0.012,100.0,109.0,97.0,13.3,1505.4,327.7,-0.7,1.8,2469.884,13.34,0.038,330.8
2019-11-03T01:10:26,42.805,6.029,0.02,0.031,0.003,100.0,108.0,98.0,13.4,1505.4,325.8,-0.7,1.9,2469.862,13.34,0.036,32.8
2019-11-03T01:13:27,42.805,6.029,-0.018,0.022,-0.017,100.0,109.0,97.0,13.4,1505.4,327.4,-0.7,1.8,2469.87,13.34,0.028,320.7
2019-11-03T01:16:28,42.805,6.029,0.02,0.021,0.004,99.0,107.0,98.0,13.4,1505.4,324.5,-0.7,1.8,2469.898,13.34,0.028,43.6
2019-11-03T01:19:29,42.805,6.029,0.003,0.023,0.014,100.0,108.0,98.0,13.3,1505.4,324.9,-0.7,1.9,2469.847,13.34,0.023,7.4
2019-11-03T01:22:30,42.805,6.029,0.005,0.025,-0.019,100.0,108.0,98.0,13.4,1505.4,328.2,-0.7,1.8,2469.854,13.34,0.025,11.3
2019-11-03T01:25:31,42.805,6.029,0.0,0.014,-0.006,101.0,109.0,98.0,13.3,1505.4,324.3,-0.7,1.9,2469.889,13.34,0.014,0.0
2019-11-03T01:28:32,42.805,6.029,0.026,0.021,-0.042,100.0,108.0,98.0,13.4,1505.4,327.1,-0.7,1.8,2469.856,13.34,0.033,51.1
2019-11-03T01:31:33,42.805,6.029,-0.018,0.013,-0.064,101.0,106.0,99.0,13.4,1505.4,325.6,-0.7,1.8,2469.861,13.35,0.022,305.8
2019-11-03T01:34:34,42.805,6.029,0.0,0.003,-0.025,98.0,108.0,99.0,13.3,1505.4,325.1,-0.7,1.9,2469.873,13.34,0.003,0.0
2019-11-03T01:37:35,42.805,6.029,-0.003,0.006,-0.037,100.0,107.0,99.0,13.4,1505.4,325.3,-0.7,1.8,2469.907,13.34,0.006,333.4
2019-11-03T01:40:36,42.805,6.029,0.028,0.023,-0.02,100.0,108.0,98.0,13.4,1505.4,324.5,-0.7,1.8,2469.909,13.34,0.036,50.6
2019-11-03T01:43:37,42.805,6.029,-0.012,0.011,-0.011,100.0,108.0,98.0,13.4,1505.4,324.9,-0.7,1.8,2469.894,13.34,0.016,312.5
2019-11-03T01:46:38,42.805,6.029,0.0,0.028,-0.014,100.0,107.0,99.0,13.4,1505.4,325.2,-0.7,1.9,2469.903,13.34,0.028,0.0
2019-11-03T01:49:39,42.805,6.029,0.036,0.02,-0.031,100.0,107.0,98.0,13.3,1505.4,325.9,-0.7,1.8,2469.91,13.34,0.041,60.9
2019-11-03T01:52:40,42.805,6.029,0.019,0.02,-0.021,100.0,106.0,98.0,13.4,1505.4,326.6,-0.7,1.8,2469.867,13.34,0.027,43.5
2019-11-03T01:55:41,42.805,6.029,0.015,0.002,0.004,100.0,106.0,97.0,13.4,1505.4,324.6,-0.7,1.9,2469.889,13.34,0.015,82.4
2019-11-03T01:58:42,42.805,6.029,0.011,0.037,0.013,99.0,106.0,98.0,13.4,1505.3,328.7,-0.7,1.8,2469.912,13.33,0.038,16.6
2019-11-03T02:01:43,42.805,6.029,0.021,0.021,-0.001,99.0,106.0,97.0,13.3,1505.3,323.1,-0.7,1.8,2469.884,13.33,0.029,45.0
2019-11-03T02:04:44,42.805,6.029,0.005,0.018,-0.007,101.0,106.0,97.0,13.4,1505.3,324.5,-0.7,1.9,2469.888,13.33,0.018,15.5
2019-11-03T02:07:45,42.805,6.029,0.016,0.024,-0.058,100.0,107.0,97.0,13.3,1505.3,325.3,-0.7,1.8,2469.913,13.33,0.028,33.7
2019-11-03T02:10:46,42.805,6.029,0.015,0.025,-0.016,100.0,107.0,98.0,13.3,1505.3,326.9,-0.7,1.8,2469.872,13.33,0.029,31.0
2019-11-03T02:13:47,42.805,6.029,0.017,0.008,-0.013,101.0,106.0,98.0,13.4,1505.3,325.1,-0.7,1.9,2469.903,13.33,0.018,64.8
2019-11-03T02:16:48,42.805,6.029,0.006,0.003,-0.014,102.0,105.0,97.0,13.4,1505.3,326.9,-0.7,1.8,2469.901,13.33,0.006,63.4
2019-11-03T02:19:49,42.805,6.029,0.024,0.023,-0.032,99.0,107.0,98.0,13.4,1505.3,323.0,-0.7,1.8,2469.911,13.33,0.033,46.2
2019-11-03T02:22:50,42.805,6.029,0.009,0.005,-0.067,99.0,105.0,98.0,13.4,1505.3,328.0,-0.7,1.8,2469.895,13.33,0.01,60.9
2019-11-03T02:25:51,42.805,6.029,-0.011,0.017,-0.059,100.0,105.0,98.0,13.3,1505.3,323.3,-0.7,1.8,2469.913,13.33,0.02,327.1
2019-11-03T02:28:52,42.805,6.029,0.032,0.008,-0.013,98.0,105.0,98.0,13.4,1505.3,325.1,-0.7,1.8,2469.881,13.33,0.032,76.0
2019-11-03T02:31:53,42.805,6.029,0.025,0.023,-0.028,101.0,105.0,96.0,13.4,1505.3,323.8,-0.7,1.9,2469.931,13.33,0.033,47.4
2019-11-03T02:34:54,42.805,6.029,0.011,0.004,0.0,100.0,106.0,97.0,13.4,1505.3,325.5,-0.7,1.8,2469.894,13.33,0.011,70.0
2019-11-03T02:37:55,42.805,6.029,0.01,-0.004,-0.029,98.0,106.0,97.0,13.4,1505.3,327.9,-0.7,1.8,2469.949,13.33,0.01,111.8
2019-11-03T02:40:56,42.805,6.029,-0.002,0.021,-0.021,101.0,105.0,97.0,13.4,1505.3,324.3,-0.7,1.8,2469.893,13.33,0.021,354.6
2019-11-03T02:43:57,42.805,6.029,0.003,-0.001,-0.049,100.0,107.0,97.0,13.3,1505.3,323.4,-0.7,1.9,2469.903,13.33,0.003,108.4
2019-11-03T02:46:58,42.805,6.029,-0.007,0.01,-0.066,100.0,105.0,98.0,13.4,1505.3,324.2,-0.7,1.8,2469.874,13.33,0.012,325.0
2019-11-03T02:49:59,42.805,6.029,-0.01,-0.001,-0.085,98.0,107.0,98.0,13.4,1505.3,324.7,-0.7,1.8,2469.925,13.33,0.01,264.3
2019-11-03T02:53:00,42.805,6.029,0.017,0.004,-0.015,99.0,108.0,99.0,13.3,1505.3,327.6,-0.7,1.8,2469.887,13.33,0.017,76.8
2019-11-03T02:56:01,42.805,6.029,0.012,0.009,-0.031,97.0,106.0,98.0,13.4,1505.3,325.3,-0.7,1.9,2469.907,13.33,0.015,53.1
2019-11-03T02:59:02,42.805,6.029,0.017,0.011,-0.016,99.0,107.0,98.0,13.4,1505.3,325.9,-0.7,1.8,2469.9,13.33,0.02,57.1
2019-11-03T03:02:03,42.805,6.029,0.054,0.012,-0.004,99.0,106.0,97.0,13.3,1505.3,325.6,-0.7,1.8,2469.893,13.33,0.055,77.5
2019-11-03T03:05:04,42.805,6.029,0.017,-0.002,-0.035,97.0,107.0,97.0,13.4,1505.3,323.8,-0.7,1.9,2469.929,13.33,0.017,96.7
2019-11-03T03:08:05,42.805,6.029,0.022,0.002,-0.037,99.0,107.0,97.0,13.4,1505.3,327.5,-0.7,1.8,2469.884,13.33,0.022,84.8
2019-11-03T03:11:06,42.805,6.029,-0.002,0.023,0.006,99.0,107.0,98.0,13.3,1505.3,327.4,-0.7,1.8,2469.886,13.33,0.023,355.0
2019-11-03T03:14:07,42.805,6.029,0.028,0.0,-0.049,99.0,105.0,99.0,13.4,1505.3,324.9,-0.7,1.8,2469.899,13.33,0.028,90.0
2019-11-03T03:17:08,42.805,6.029,0.017,0.011,-0.011,100.0,105.0,98.0,13.4,1505.3,325.2,-0.7,1.9,2469.945,13.33,0.02,57.1
2019-11-03T03:20:09,42.805,6.029,0.025,0.018,-0.03,100.0,104.0,98.0,13.3,1505.3,323.9,-0.7,1.8,2469.945,13.33,0.03,54.2
2019-11-03T03:23:10,42.805,6.029,0.037,0.012,-0.003,98.0,105.0,98.0,13.3,1505.3,325.1,-0.7,1.8,2469.914,13.33,0.038,72.0
2019-11-03T03:26:11,42.805,6.029,0.024,0.014,0.002,99.0,105.0,98.0,13.4,1505.3,324.0,-0.7,1.8,2469.905,13.33,0.027,59.7
2019-11-03T03:29:12,42.805,6.029,0.021,0.005,-0.027,100.0,105.0,98.0,13.4,1505.3,324.9,-0.7,1.8,2469.883,13.33,0.021,76.6
2019-11-03T03:32:13,42.805,6.029,0.003,-0.003,-0.029,98.0,107.0,97.0,13.4,1505.3,328.5,-0.7,1.8,2469.948,13.33,0.004,135.0
2019-11-03T03:35:14,42.805,6.029,0.016,0.02,-0.026,99.0,104.0,98.0,13.4,1505.3,324.1,-0.7,1.8,2469.91,13.33,0.025,38.7
2019-11-03T03:38:15,42.805,6.029,0.03,0.0,-0.044,100.0,104.0,97.0,13.4,1505.3,325.5,-0.7,1.8,2469.887,13.33,0.03,90.0
2019-11-03T03:41:16,42.805,6.029,0.043,-0.009,-0.021,99.0,104.0,99.0,13.4,1505.3,325.9,-0.7,1.8,2469.901,13.33,0.043,101.8
2019-11-03T03:44:17,42.805,6.029,0.02,-0.005,-0.03,99.0,105.0,97.0,13.4,1505.3,327.2,-0.8,1.8,2469.913,13.33,0.02,104.0
2019-11-03T03:47:18,42.805,6.029,0.021,-0.006,-0.021,99.0,105.0,98.0,13.4,1505.3,326.3,-0.7,1.8,2469.881,13.33,0.021,105.9
2019-11-03T03:50:19,42.805,6.029,-0.002,-0.006,-0.049,98.0,106.0,97.0,13.3,1505.3,326.8,-0.7,1.8,2469.97,13.33,0.006,198.4
2019-11-03T03:53:20,42.805,6.029,0.051,-0.01,-0.002,99.0,104.0,97.0,13.4,1505.3,325.7,-0.7,1.8,2469.887,13.33,0.051,101.1
2019-11-03T03:56:21,42.805,6.029,0.052,-0.004,-0.002,100.0,103.0,98.0,13.4,1505.3,326.7,-0.7,1.8,2469.904,13.33,0.052,94.4
2019-11-03T03:59:22,42.805,6.029,0.009,-0.004,-0.019,101.0,104.0,97.0,13.3,1505.3,324.9,-0.8,1.8,2469.851,13.33,0.009,114.0
2019-11-03T04:02:23,42.805,6.029,0.032,0.005,0.028,99.0,105.0,97.0,13.4,1505.3,324.5,-0.7,1.8,2469.92,13.33,0.032,81.1
2019-11-03T04:05:24,42.805,6.029,0.008,0.009,-0.026,99.0,106.0,98.0,13.4,1505.3,326.4,-0.7,1.8,2469.899,13.33,0.012,41.6
2019-11-03T04:08:25,42.805,6.029,0.018,0.002,-0.011,99.0,105.0,98.0,13.4,1505.3,324.6,-0.7,1.8,2469.925,13.33,0.018,83.7
2019-11-03T04:11:26,42.805,6.029,0.025,0.012,-0.013,99.0,106.0,98.0,13.4,1505.3,326.4,-0.7,1.8,2469.898,13.33,0.027,64.4
2019-11-03T04:14:27,42.805,6.029,0.028,-0.014,-0.007,99.0,106.0,97.0,13.4,1505.3,325.7,-0.7,1.9,2469.908,13.33,0.031,116.6
2019-11-03T04:17:28,42.805,6.029,0.037,-0.004,-0.01,98.0,106.0,98.0,13.4,1505.3,325.6,-0.7,1.8,2469.928,13.33,0.037,96.2
2019-11-03T04:20:29,42.805,6.029,0.015,-0.007,-0.023,100.0,104.0,98.0,13.4,1505.3,325.7,-0.7,1.8,2469.908,13.33,0.016,115.0
2019-11-03T04:23:30,42.805,6.029,0.019,-0.003,-0.029,99.0,104.0,97.0,13.4,1505.3,324.9,-0.7,1.9,2469.918,13.33,0.019,99.0
2019-11-03T04:26:31,42.805,6.029,0.015,-0.007,-0.038,99.0,104.0,97.0,13.4,1505.3,327.9,-0.7,1.8,2469.892,13.33,0.016,115.0
2019-11-03T04:29:32,42.805,6.029,0.031,0.013,-0.001,100.0,104.0,98.0,13.4,1505.3,324.4,-0.7,1.8,2469.892,13.33,0.033,67.3
2019-11-03T04:32:33,42.805,6.029,-0.01,0.009,-0.06,100.0,104.0,97.0,13.4,1505.3,326.5,-0.7,1.9,2469.913,13.33,0.013,312.0
2019-11-03T04:35:34,42.805,6.029,0.021,-0.004,-0.025,101.0,103.0,97.0,13.4,1505.3,325.1,-0.7,1.8,2469.885,13.33,0.021,100.8
2019-11-03T04:38:35,42.805,6.029,0.02,0.01,-0.008,100.0,104.0,98.0,13.4,1505.3,326.9,-0.7,1.8,2469.945,13.33,0.022,63.4
2019-11-03T04:41:36,42.805,6.029,0.045,-0.006,-0.011,103.0,105.0,97.0,13.3,1505.3,327.0,-0.7,1.8,2469.897,13.33,0.045,97.6
2019-11-03T04:44:37,42.805,6.029,0.044,-0.006,-0.011,102.0,105.0,98.0,13.4,1505.3,326.8,-0.7,1.8,2469.902,13.33,0.044,97.8
2019-11-03T04:47:38,42.805,6.029,0.043,-0.001,-0.022,99.0,105.0,98.0,13.3,1505.3,325.4,-0.7,1.8,2469.882,13.33,0.043,91.3
2019-11-03T04:50:39,42.805,6.029,0.042,0.024,0.012,100.0,104.0,97.0,13.3,1505.3,325.7,-0.7,1.8,2469.887,13.33,0.048,60.3
2019-11-03T04:53:40,42.805,6.029,0.021,0.007,-0.007,99.0,105.0,98.0,13.4,1505.3,326.4,-0.7,1.8,2469.87,13.33,0.022,71.6
2019-11-03T04:56:41,42.805,6.029,-0.01,0.001,-0.07,100.0,104.0,97.0,13.4,1505.3,326.5,-0.7,1.9,2469.882,13.33,0.01,275.7
2019-11-03T04:59:42,42.805,6.029,0.027,-0.017,-0.032,100.0,108.0,97.0,13.3,1505.3,327.0,-0.7,1.9,2469.846,13.33,0.031,122.2
2019-11-03T05:02:43,42.805,6.029,0.027,-0.017,-0.029,100.0,104.0,98.0,13.3,1505.3,327.5,-0.7,1.8,2469.891,13.33,0.031,122.2
2019-11-03T05:05:44,42.805,6.029,0.018,0.02,-0.031,99.0,104.0,98.0,13.4,1505.3,327.1,-0.7,1.8,2469.909,13.33,0.026,42.0
2019-11-03T05:08:45,42.805,6.029,0.009,0.011,-0.028,101.0,101.0,99.0,13.4,1505.3,326.8,-0.7,1.9,2469.856,13.33,0.014,39.3
2019-11-03T05:11:46,42.805,6.029,0.011,-0.016,-0.026,99.0,104.0,97.0,13.3,1505.3,324.9,-0.7,1.8,2469.907,13.33,0.019,145.5
2019-11-03T05:14:47,42.805,6.029,-0.012,0.002,-0.011,100.0,103.0,98.0,13.3,1505.3,326.7,-0.7,1.8,2469.899,13.33,0.012,279.5
2019-11-03T05:17:48,42.805,6.029,0.03,-0.008,0.008,99.0,103.0,97.0,13.4,1505.3,327.2,-0.7,1.8,2469.917,13.33,0.031,104.9
2019-11-03T05:20:49,42.805,6.029,0.018,0.001,0.0,100.0,104.0,98.0,13.3,1505.3,325.2,-0.8,1.8,2469.878,13.33,0.018,86.8
2019-11-03T05:23:50,42.805,6.029,-0.016,0.018,-0.034,99.0,104.0,98.0,13.4,1505.3,324.4,-0.7,1.8,2469.931,13.33,0.024,318.4
2019-11-03T05:26:51,42.805,6.029,-0.008,-0.014,-0.042,99.0,103.0,98.0,13.3,1505.3,328.1,-0.7,1.8,2469.907,13.33,0.016,209.7
2019-11-03T05:29:52,42.805,6.029,0.038,-0.002,-0.06,100.0,102.0,98.0,13.3,1505.3,326.9,-0.7,1.8,2469.865,13.33,0.038,93.0
2019-11-03T05:32:53,42.805,6.029,0.052,0.003,0.014,100.0,103.0,98.0,13.4,1505.3,326.9,-0.7,1.9,2469.936,13.33,0.052,86.7
2019-11-03T05:35:54,42.805,6.029,0.052,-0.025,-0.029,100.0,103.0,99.0,13.4,1505.3,324.7,-0.7,1.8,2469.88,13.33,0.057,115.7
2019-11-03T05:38:55,42.805,6.029,0.009,-0.002,-0.009,100.0,103.0,98.0,13.4,1505.3,326.4,-0.7,1.9,2469.899,13.33,0.009,102.5
2019-11-03T05:41:56,42.805,6.029,0.024,-0.013,-0.016,99.0,104.0,97.0,13.3,1505.3,324.7,-0.7,1.8,2469.895,13.33,0.027,118.4
2019-11-03T05:44:57,42.805,6.029,0.055,0.023,0.013,98.0,104.0,99.0,13.4,1505.3,325.1,-0.7,1.8,2469.86,13.33,0.059,67.3
2019-11-03T05:47:58,42.805,6.029,-0.003,0.008,-0.009,101.0,104.0,98.0,13.3,1505.3,326.8,-0.7,1.8,2469.892,13.33,0.008,339.4
2019-11-03T05:50:59,42.805,6.029,0.019,-0.004,0.016,100.0,102.0,98.0,13.4,1505.3,326.1,-0.7,1.8,2469.892,13.33,0.019,101.9
2019-11-03T05:54:00,42.805,6.029,0.018,-0.008,-0.016,100.0,102.0,99.0,13.4,1505.3,324.4,-0.7,1.8,2469.885,13.33,0.019,114.0
2019-11-03T05:57:01,42.805,6.029,0.015,0.0,-0.003,99.0,102.0,98.0,13.4,1505.3,326.9,-0.7,1.8,2469.936,13.33,0.015,90.0
2019-11-03T06:00:02,42.805,6.029,0.0,-0.002,-0.044,101.0,102.0,96.0,13.4,1505.3,324.5,-0.7,1.8,2469.893,13.33,0.002,180.0
2019-11-03T06:03:03,42.805,6.029,-0.008,-0.021,-0.017,100.0,102.0,98.0,13.4,1505.3,326.5,-0.7,1.8,2469.894,13.33,0.022,200.9
2019-11-03T06:06:04,42.805,6.029,-0.007,0.006,-0.043,100.0,101.0,97.0,13.3,1505.3,328.0,-0.7,1.9,2469.899,13.33,0.009,310.6
2019-11-03T06:09:05,42.805,6.029,0.012,-0.012,-0.012,101.0,102.0,99.0,13.4,1505.3,325.1,-0.8,1.8,2469.903,13.33,0.016,135.0
2019-11-03T06:12:06,42.805,6.029,0.0,0.002,-0.031,100.0,103.0,97.0,13.4,1505.3,324.7,-0.7,1.8,2469.897,13.33,0.002,0.0
2019-11-03T06:15:07,42.805,6.029,-0.01,0.001,-0.042,101.0,101.0,98.0,13.3,1505.3,323.9,-0.7,1.8,2469.874,13.33,0.01,275.7
2019-11-03T06:18:08,42.805,6.029,0.008,-0.001,-0.014,101.0,102.0,97.0,13.4,1505.3,326.5,-0.7,1.8,2469.881,13.33,0.008,97.1
2019-11-03T06:21:09,42.805,6.029,0.006,0.018,-0.037,100.0,103.0,98.0,13.3,1505.3,324.7,-0.7,1.8,2469.913,13.33,0.018,18.4
2019-11-03T06:24:10,42.805,6.029,0.05,0.008,0.006,99.0,102.0,97.0,13.3,1505.3,327.2,-0.7,1.8,2469.895,13.33,0.05,80.9
2019-11-03T06:27:11,42.805,6.029,0.025,0.019,-0.012,99.0,102.0,98.0,13.4,1505.3,326.9,-0.7,1.8,2469.938,13.33,0.031,52.8
2019-11-03T06:30:12,42.805,6.029,0.028,0.0,0.033,101.0,101.0,97.0,13.4,1505.3,327.3,-0.7,1.8,2469.882,13.33,0.028,90.0
2019-11-03T06:33:13,42.805,6.029,0.018,-0.012,-0.01,98.0,103.0,99.0,13.4,1505.3,327.3,-0.7,1.8,2469.907,13.33,0.021,123.7
2019-11-03T06:36:14,42.805,6.029,-0.026,-0.014,-0.046,100.0,102.0,99.0,13.3,1505.3,325.5,-0.7,1.9,2469.916,13.33,0.029,241.7
2019-11-03T06:39:15,42.805,6.029,-0.021,0.008,-0.043,98.0,102.0,98.0,13.3,1505.3,328.3,-0.7,1.8,2469.925,13.33,0.022,290.9
2019-11-03T06:42:16,42.805,6.029,-0.039,-0.002,-0.111,98.0,101.0,97.0,13.4,1505.3,323.7,-0.7,1.8,2469.889,13.33,0.039,267.1
2019-11-03T06:45:17,42.805,6.029,0.002,0.004,-0.038,99.0,102.0,97.0,13.3,1505.3,325.6,-0.8,1.8,2469.947,13.33,0.004,26.6
2019-11-03T06:48:18,42.805,6.029,0.025,0.012,-0.012,101.0,100.0,97.0,13.4,1505.3,326.7,-0.7,1.8,2469.898,13.33,0.027,64.4
2019-11-03T06:51:19,42.805,6.029,-0.001,0.005,-0.019,98.0,102.0,97.0,13.4,1505.3,326.0,-0.7,1.8,2469.949,13.33,0.005,348.7
2019-11-03T06:54:20,42.805,6.029,0.017,-0.006,-0.029,100.0,101.0,97.0,13.4,1505.3,325.4,-0.7,1.8,2469.922,13.33,0.018,109.4
2019-11-03T06:57:21,42.805,6.029,0.007,0.019,-0.014,99.0,101.0,97.0,13.3,1505.3,327.3,-0.7,1.9,2469.891,13.33,0.02,20.2
2019-11-03T07:00:22,42.805,6.029,0.017,-0.003,-0.009,99.0,101.0,98.0,13.4,1505.3,327.3,-0.7,1.8,2469.916,13.33,0.017,100.0
2019-11-03T07:03:23,42.805,6.029,0.033,-0.002,-0.032,98.0,101.0,97.0,13.3,1505.3,328.0,-0.7,1.8,2469.894,13.33,0.033,93.5
2019-11-03T07:06:24,42.805,6.029,0.069,0.003,0.015,97.0,101.0,96.0,13.4,1505.3,326.4,-0.7,1.9,2469.899,13.33,0.069,87.5
2019-11-03T07:09:25,42.805,6.029,0.033,0.012,-0.024,98.0,101.0,97.0,13.4,1505.3,325.8,-0.7,1.9,2469.906,13.33,0.035,70.0
2019-11-03T07:12:26,42.805,6.029,0.02,0.007,-0.014,100.0,101.0,98.0,13.4,1505.3,325.6,-0.7,1.8,2469.96,13.33,0.021,70.7
2019-11-03T07:15:27,42.805,6.029,0.015,0.003,-0.051,99.0,100.0,97.0,13.4,1505.3,326.9,-0.7,1.9,2469.912,13.33,0.015,78.7
2019-11-03T07:18:28,42.805,6.029,-0.001,0.01,-0.025,98.0,101.0,97.0,13.3,1505.3,326.5,-0.7,1.8,2469.906,13.33,0.01,354.3
2019-11-03T07:21:29,42.805,6.029,0.003,0.0,0.004,99.0,102.0,97.0,13.4,1505.3,326.0,-0.7,1.8,2469.929,13.33,0.003,90.0
2019-11-03T07:24:30,42.805,6.029,0.0,0.001,-0.028,99.0,102.0,97.0,13.4,1505.3,327.8,-0.7,1.8,2469.93,13.33,0.001,0.0
2019-11-03T07:27:31,42.805,6.029,0.021,0.007,-0.026,98.0,102.0,97.0,13.4,1505.3,327.2,-0.7,1.8,2469.918,13.33,0.022,71.6
2019-11-03T07:30:32,42.805,6.029,0.028,0.005,-0.001,99.0,102.0,96.0,13.3,1505.3,326.3,-0.7,1.9,2469.952,13.33,0.028,79.9
2019-11-03T07:33:33,42.805,6.029,0.013,0.006,-0.026,99.0,102.0,98.0,13.4,1505.3,326.0,-0.7,1.9,2469.966,13.33,0.014,65.2
2019-11-03T07:36:34,42.805,6.029,0.017,0.001,-0.017,98.0,103.0,98.0,13.4,1505.3,326.5,-0.7,1.8,2469.947,13.33,0.017,86.6
2019-11-03T07:39:35,42.805,6.029,0.002,0.015,-0.01,98.0,103.0,99.0,13.4,1505.3,323.3,-0.7,1.8,2469.96,13.33,0.015,7.6
2019-11-03T07:42:36,42.805,6.029,-0.002,0.004,-0.023,98.0,104.0,98.0,13.4,1505.3,326.2,-0.7,1.8,2469.987,13.33,0.004,333.4
2019-11-03T07:45:37,42.805,6.029,0.019,-0.006,-0.033,98.0,103.0,98.0,13.4,1505.3,326.8,-0.7,1.8,2469.928,13.33,0.019,107.5
2019-11-03T07:48:38,42.805,6.029,0.014,0.018,-0.009,99.0,103.0,97.0,13.3,1505.3,328.4,-0.7,1.8,2469.987,13.33,0.022,37.9
2019-11-03T07:51:39,42.805,6.029,-0.022,0.026,-0.072,101.0,100.0,98.0,13.4,1505.3,326.7,-0.7,1.8,2469.956,13.33,0.034,319.8
2019-11-03T07:54:40,42.805,6.029,0.02,0.005,-0.002,100.0,101.0,96.0,13.4,1505.3,327.9,-0.7,1.8,2469.924,13.33,0.02,76.0
2019-11-03T07:57:41,42.805,6.029,0.019,0.03,-0.026,99.0,102.0,96.0,13.4,1505.3,326.7,-0.7,1.8,2469.944,13.33,0.035,32.3
2019-11-03T08:00:42,42.805,6.029,0.031,0.016,-0.017,99.0,101.0,97.0,13.4,1505.3,326.1,-0.7,1.8,2469.981,13.33,0.034,62.7
2019-11-03T08:03:43,42.805,6.029,0.015,0.001,0.016,99.0,102.0,98.0,13.4,1505.3,325.0,-0.8,1.8,2469.952,13.33,0.015,86.2
2019-11-03T08:06:44,42.805,6.029,-0.025,0.024,0.002,99.0,102.0,98.0,13.3,1505.3,325.7,-0.8,1.8,2469.992,13.33,0.034,313.8
2019-11-03T08:09:45,42.805,6.029,0.041,0.045,0.04,100.0,103.0,96.0,13.4,1505.3,324.7,-0.7,1.8,2469.952,13.33,0.06,42.3
2019-11-03T08:12:46,42.805,6.029,0.014,0.022,0.002,98.0,102.0,97.0,13.4,1505.3,324.0,-0.7,1.8,2469.984,13.33,0.026,32.5
2019-11-03T08:15:47,42.805,6.029,0.012,0.012,-0.038,99.0,101.0,96.0,13.4,1505.3,324.7,-0.7,1.8,2469.951,13.33,0.016,45.0
2019-11-03T08:18:48,42.805,6.029,0.008,0.014,-0.044,98.0,102.0,97.0,13.4,1505.3,323.2,-0.7,1.8,2469.968,13.33,0.016,29.7
2019-11-03T08:21:49,42.805,6.029,0.01,-0.009,-0.026,97.0,103.0,97.0,13.3,1505.3,324.9,-0.7,1.9,2469.997,13.33,0.013,132.0
2019-11-03T08:24:50,42.805,6.029,0.043,0.003,-0.003,99.0,103.0,97.0,13.3,1505.3,324.6,-0.7,1.8,2469.978,13.33,0.043,86.0
2019-11-03T08:27:51,42.805,6.029,0.004,0.017,-0.034,100.0,102.0,96.0,13.3,1505.3,326.0,-0.7,1.9,2470.002,13.33,0.017,13.2
2019-11-03T08:30:52,42.805,6.029,0.007,0.007,0.004,99.0,102.0,97.0,13.4,1505.3,325.1,-0.7,1.9,2469.953,13.33,0.009,45.0
2019-11-03T08:33:53,42.805,6.029,0.002,0.016,-0.015,99.0,101.0,97.0,13.4,1505.3,327.8,-0.7,1.8,2470.009,13.33,0.016,7.1
2019-11-03T08:36:54,42.805,6.029,0.001,0.007,-0.04,99.0,103.0,97.0,13.3,1505.3,325.5,-0.7,1.8,2469.984,13.33,0.007,8.1
2019-11-03T08:39:55,42.805,6.029,0.013,0.003,-0.041,98.0,102.0,97.0,13.4,1505.3,327.5,-0.7,1.8,2470.009,13.33,0.013,77.0
2019-11-03T08:42:56,42.805,6.029,-0.006,0.031,-0.019,97.0,102.0,98.0,13.4,1505.3,328.0,-0.7,1.8,2470.009,13.33,0.031,349.0
2019-11-03T08:45:57,42.805,6.029,-0.024,0.013,-0.06,98.0,102.0,96.0,13.3,1505.3,325.8,-0.7,1.8,2469.997,13.33,0.027,298.4
2019-11-03T08:48:58,42.805,6.029,-0.017,0.016,-0.026,98.0,103.0,98.0,13.4,1505.3,327.1,-0.7,1.8,2470.037,13.33,0.023,313.3
2019-11-03T08:51:59,42.805,6.029,-0.012,0.012,-0.031,100.0,101.0,97.0,13.4,1505.3,324.6,-0.7,1.8,2469.982,13.33,0.016,315.0
2019-11-03T08:55:00,42.805,6.029,-0.028,-0.004,-0.067,98.0,103.0,97.0,13.4,1505.3,327.6,-0.7,1.8,2470.059,13.33,0.028,261.9
2019-11-03T08:58:01,42.805,6.029,0.035,0.015,0.017,97.0,102.0,98.0,13.4,1505.3,325.9,-0.7,1.8,2470.02,13.33,0.038,66.8
2019-11-03T09:01:02,42.805,6.029,0.019,0.013,-0.022,99.0,102.0,97.0,13.3,1505.3,325.4,-0.8,1.8,2470.057,13.33,0.023,55.6
2019-11-03T09:04:03,42.805,6.029,0.043,0.01,0.045,99.0,101.0,98.0,13.3,1505.3,326.0,-0.7,1.8,2470.01,13.33,0.044,76.9
2019-11-03T09:07:04,42.805,6.029,0.021,0.022,0.019,101.0,104.0,97.0,13.4,1505.3,325.0,-0.7,1.8,2470.033,13.33,0.03,43.7
2019-11-03T09:10:05,42.805,6.029,0.041,0.024,0.054,99.0,102.0,97.0,13.4,1505.3,326.2,-0.7,1.9,2470.01,13.33,0.047,59.7
2019-11-03T09:13:06,42.805,6.029,0.014,0.026,0.042,99.0,103.0,96.0,13.4,1505.3,325.7,-0.7,1.8,2469.99,13.33,0.029,28.3
2019-11-03T09:16:07,42.805,6.029,-0.034,-0.001,-0.049,97.0,102.0,98.0,13.4,1505.3,326.5,-0.7,1.9,2469.989,13.33,0.034,268.3
2019-11-03T09:19:08,42.805,6.029,0.026,0.005,-0.029,98.0,102.0,98.0,13.3,1505.3,326.1,-0.7,1.9,2470.039,13.33,0.026,79.1
2019-11-03T09:22:09,42.805,6.029,-0.004,0.01,-0.067,98.0,102.0,96.0,13.4,1505.3,327.4,-0.7,1.8,2470.029,13.33,0.01,338.2
2019-11-03T09:25:10,42.805,6.029,-0.001,0.027,-0.043,98.0,102.0,97.0,13.4,1505.3,325.9,-0.7,1.8,2470.018,13.33,0.027,357.9
2019-11-03T09:28:11,42.805,6.029,-0.009,0.004,-0.022,100.0,101.0,97.0,13.3,1505.3,327.9,-0.7,1.8,2470.003,13.33,0.009,294.0
2019-11-03T09:31:12,42.805,6.029,-0.017,0.035,-0.025,100.0,101.0,96.0,13.4,1505.3,326.4,-0.7,1.8,2470.001,13.33,0.038,334.1
2019-11-03T09:34:13,42.805,6.029,-0.007,0.023,0.015,99.0,102.0,98.0,13.3,1505.3,324.7,-0.7,1.8,2469.988,13.33,0.024,343.1
2019-11-03T09:37:14,42.805,6.029,-0.004,0.015,-0.014,99.0,101.0,98.0,13.4,1505.3,326.5,-0.7,1.8,2470.011,13.33,0.015,345.1
2019-11-03T09:40:15,42.805,6.029,-0.001,0.008,-0.024,99.0,104.0,97.0,13.4,1505.3,327.8,-0.7,1.8,2470.057,13.33,0.008,352.9
2019-11-03T09:43:16,42.805,6.029,0.066,-0.006,0.036,101.0,102.0,97.0,13.4,1505.3,326.5,-0.7,1.9,2470.038,13.33,0.066,95.2